CAPE
0 0 0 0 0 0 0 0 0 0 0 0 0 0 0 0 0 0 0 0 0 0 0 0 0 0 0 1 1 2 2 2 4 0 0 0 0 0 0 0 0 0 0
0 0 0 0 0 0 0 0 0 0 0 0 0 0 0 0 0 0 0 0 0 0 0 0 0 0 0 2 0 4 5 3 3 2 1 0 0 0 0 0 0 0 0
0 0 0 0 0 0 0 0 0 0 0 0 0 0 0 0 0 0 0 0 0 0 0 0 0 2 2 4 1 0 2 3 3 3 2 0 0 0 0 0 0 0 0
0 0 0 0 0 0 0 0 0 0 0 0 0 0 0 0 0 0 0 0 0 0 0 0 2 0 0 1 2 2 2 3 6 7 2 0 0 0 0 0 0 0 0
0 0 0 0 0 0 0 0 0 0 0 0 0 0 0 0 0 0 0 0 0 0 0 0 1 0 3 4 5 5 6 5 4 2 1 0 0 1 2 2 3 0 0
0 0 0 0 0 0 0 0 0 0 0 0 0 0 0 0 3 2 0 0 0 0 0 0 0 0 1 6 7 5 3 3 3 2 2 2 2 5 5 8 10 6 0
0 0 0 0 0 0 0 0 0 0 0 0 0 0 0 0 4 4 0 0 0 0 0 0 0 0 0 3 2 0 0 3 5 5 4 2 5 10 15 5 4 4 3
0 0 0 0 0 0 0 0 0 0 0 0 0 0 0 0 3 3 0 0 0 0 0 0 0 0 1 10 1 0 1 2 4 0 4 4 6 11 12 16 10 7 0
0 0 0 0 0 0 0 0 0 0 0 0 0 0 0 0 4 2 0 0 0 0 0 0 0 3 5 10 1 1 5 3 0 2 1 4 4 5 8 4 0 0 0
0 0 0 0 0 0 0 0 0 0 0 0 0 0 0 0 1 3 0 0 2 0 0 0 2 3 5 6 1 4 0 4 0 0 0 0 0 0 2 5 8 1 0
0 0 0 0 0 0 0 0 0 0 0 0 0 0 0 0 0 2 4 1 2 0 1 0 0 3 3 3 3 1 1 0 0 0 0 0 0 0 0 1 4 9 3
0 0 0 0 0 0 0 0 0 0 0 0 0 0 0 0 1 2 3 3 2 0 0 0 0 1 1 0 2 4 0 0 0 0 0 0 0 0 0 0 2 5 7
0 0 0 0 0 0 0 0 0 0 0 0 0 0 0 0 0 1 2 2 1 0 0 0 0 0 0 0 1 1 0 0 0 0 0 0 0 0 0 0 0 0 0
0 0 0 0 0 0 0 0 0 0 0 0 0 0 0 0 0 0 0 0 0 0 0 0 0 0 0 0 0 0 0 0 0 0 0 0 0 0 0 0 0 0 0
0 0 0 0 0 0 0 0 0 0 0 0 0 0 0 0 0 0 1 0 0 0 0 0 0 0 0 0 0 0 0 0 0 0 0 0 0 0 0 0 0 0 0
0 0 0 0 0 0 0 0 0 0 0 0 0 0 0 0 1 1 2 1 2 0 0 0 0 0 0 0 0 0 0 0 0 0 0 0 0 0 0 0 0 0 0
0 0 0 0 0 0 0 0 0 0 0 0 0 0 0 1 1 1 2 0 0 0 0 0 0 0 0 0 0 0 0 0 0 0 0 0 0 0 0 0 0 0 0
0 0 0 0 0 0 0 0 0 0 0 0 0 0 0 1 1 1 1 0 0 0 0 0 0 0 0 0 0 0 0 0 0 0 0 0 0 0 0 0 0 0 0
0 0 0 0 0 0 0 0 0 0 0 0 0 0 0 0 1 0 0 0 0 0 0 0 0 0 0 0 0 0 0 0 0 0 0 0 0 0 0 0 0 0 0
0 0 0 0 0 0 0 0 0 0 0 0 0 0 0 0 0 0 0 0 0 0 0 0 0 0 0 0 0 0 0 0 0 0 0 0 0 0 0 0 0 0 0
0 0 0 0 0 0 0 0 0 0 0 0 0 0 0 0 0 0 0 0 0 0 0 0 0 0 0 0 0 0 0 0 0 0 0 0 0 0 0 0 0 0 0
0 0 0 0 0 0 0 0 0 0 0 0 0 0 1 0 0 0 0 0 0 0 0 0 0 0 0 0 0 0 0 0 0 0 0 0 0 0 0 0 0 0 0
0 0 0 0 0 0 0 0 0 0 0 0 0 0 0 0 0 0 0 0 0 0 0 0 0 0 0 0 0 0 0 0 0 0 0 0 0 0 0 0 0 0 0
0 0 0 0 0 0 0 0 0 0 0 0 0 0 0 0 0 0 0 0 0 0 0 0 0 0 0 0 0 0 0 0 0 0 0 0 0 0 0 0 0 0 0
0 0 0 0 0 0 0 0 0 0 0 0 0 0 0 0 0 0 0 0 0 0 0 0 0 0 0 0 0 0 0 0 0 0 0 0 0 0 0 0 0 0 0
0 0 0 0 0 0 0 0 0 0 0 0 0 0 0 0 0 0 0 0 0 0 0 0 0 0 0 0 0 0 0 4 0 0 0 0 0 0 0 0 0 0 0
CIN
0 0 0 0 0 0 0 0 0 0 0 0 0 0 0 0 0 0 0 0 0 0 0 0 0 0 -1 0 -1 -1 -1 -1 0 0 0 0 0 0 0 0 0 0 0
0 0 0 0 0 0 0 0 0 0 0 0 0 0 0 0 0 0 0 0 0 0 0 0 0 0 -1 0 0 0 0 0 0 0 0 -1 0 0 0 0 0 0 0
0 0 0 0 0 0 0 0 0 0 0 0 0 0 0 0 0 0 0 0 0 0 0 0 0 0 0 0 0 -1 0 0 0 0 0 0 0 0 0 0 0 0 0
0 0 0 0 0 0 0 0 0 0 0 0 0 0 0 0 0 0 0 0 0 0 0 0 0 0 0 -1 0 0 0 0 0 0 0 -1 0 0 0 0 0 0 0
0 0 0 0 0 0 0 0 0 0 0 0 0 0 0 0 0 0 0 0 0 0 0 0 0 0 0 0 0 0 0 0 0 0 0 0 0 0 0 0 0 -2 0
0 0 0 0 0 0 0 0 0 0 0 0 0 0 0 0 0 0 0 0 0 0 0 0 0 0 0 0 0 0 0 0 0 0 0 0 0 0 0 0 0 0 0
0 0 0 0 0 0 0 0 0 0 0 0 0 0 0 0 0 0 0 0 0 0 0 0 0 0 0 0 0 0 0 0 0 0 0 0 0 0 0 0 0 0 0
0 0 0 0 0 0 0 0 0 0 0 0 0 0 0 0 0 0 0 0 0 0 0 0 0 0 0 0 0 0 0 0 0 0 0 0 0 0 0 0 0 0 0
0 0 0 0 0 0 0 0 0 0 0 0 0 0 0 0 0 0 0 0 0 0 0 0 0 0 0 0 0 0 0 0 0 0 0 0 0 0 0 0 0 0 0
0 0 0 0 0 0 0 0 0 0 0 0 0 0 0 0 0 0 0 0 0 0 0 0 0 0 0 0 0 0 0 0 0 0 0 0 0 0 0 0 0 0 0
0 0 0 0 0 0 0 0 0 0 0 0 0 0 0 0 0 0 0 0 0 0 0 0 0 0 0 0 0 -1 0 0 0 0 0 0 0 0 0 0 0 0 0
0 0 0 0 0 0 0 0 0 0 0 0 0 0 0 0 0 0 0 0 0 0 0 0 0 0 0 0 0 0 0 0 0 0 0 0 0 0 0 0 0 0 0
0 0 0 0 0 0 0 0 0 0 0 0 0 0 0 0 0 0 0 0 0 0 0 0 0 0 0 0 0 0 0 0 0 0 0 0 0 0 0 0 0 0 0
0 0 0 0 0 0 0 0 0 0 0 0 0 0 0 0 0 0 0 0 0 0 0 0 0 0 0 0 0 0 0 0 0 0 0 0 0 0 0 0 0 0 0
0 0 0 0 0 0 0 0 0 0 0 0 0 0 0 0 0 0 0 0 0 0 0 0 0 0 0 0 0 0 0 0 0 0 0 0 0 0 0 0 0 0 0
0 0 0 0 0 0 0 0 0 0 0 0 0 0 0 0 0 0 0 0 0 0 0 0 0 0 0 0 0 0 0 0 0 0 0 0 0 0 0 0 0 0 0
0 0 0 0 0 0 0 0 0 0 0 0 0 0 0 0 0 0 0 0 0 0 0 0 0 0 0 0 0 0 0 0 0 0 0 0 0 0 0 0 0 0 0
0 0 0 0 0 0 0 0 0 0 0 0 0 0 0 0 0 0 0 0 0 0 0 0 0 0 0 0 0 0 0 0 0 0 0 0 0 0 0 0 0 0 0
0 0 0 0 0 0 0 0 0 0 0 0 0 0 0 0 0 0 0 0 0 0 0 0 0 0 0 0 0 0 0 0 0 0 0 0 0 0 0 0 0 0 0
0 0 0 0 0 0 0 0 0 0 0 0 0 0 0 0 0 0 0 0 0 0 0 0 0 0 0 0 0 0 0 0 0 0 0 0 0 0 0 0 0 0 0
0 0 0 0 0 0 0 0 0 0 0 0 0 0 0 0 0 0 0 0 0 0 0 0 0 0 0 0 0 0 0 0 0 0 0 0 0 0 0 0 0 0 0
0 0 0 0 0 0 0 0 0 0 0 0 0 0 0 0 0 0 0 0 0 0 0 0 0 0 0 0 0 0 0 0 0 0 0 0 0 0 0 0 0 0 0
0 0 0 0 0 0 0 0 0 0 0 0 0 0 0 0 0 0 0 0 0 0 0 0 0 0 0 0 0 0 0 0 0 0 0 0 0 0 0 0 0 0 0
0 0 0 0 0 0 0 0 0 0 0 0 0 0 0 0 0 0 0 0 0 0 0 0 0 0 0 0 0 0 0 0 0 0 0 0 0 0 0 0 0 0 0
0 0 0 0 0 0 0 0 0 0 0 0 0 0 0 0 0 0 0 0 0 0 0 0 0 0 0 0 0 0 0 0 0 0 0 0 0 0 0 0 0 0 0
0 0 0 0 0 0 0 0 0 0 0 0 0 0 0 0 0 0 0 0 0 0 0 0 0 0 0 0 0 0 0 0 0 0 0 0 0 0 0 0 0 0 0
Wind_Speed
5 5 5 5 6 6 6 5 6 6 6 6 6 8 10 10 10 9 9 10 9 8 8 8 9 8 6 6 6 5 6 6 11 10 10 11 14 15 14 14 14 15 13
5 5 5 6 6 6 6 6 5 6 6 6 6 10 10 10 10 10 9 8 8 9 9 9 9 8 8 9 6 10 9 9 10 17 12 11 13 14 14 17 13 13 14
5 5 5 5 5 5 5 5 5 6 7 8 9 9 9 10 10 10 8 7 7 9 8 8 9 9 8 9 9 8 7 9 9 11 13 10 10 12 15 14 14 15 13
6 6 6 5 5 5 5 5 5 6 8 8 8 7 8 8 9 9 8 8 8 8 8 8 9 11 10 9 10 11 11 10 10 9 10 10 11 13 12 15 15 12 16
7 6 5 5 5 4 5 5 6 8 9 8 8 7 6 8 8 9 8 7 7 7 8 9 8 11 15 15 9 11 11 9 8 10 11 10 11 13 15 14 16 17 15
7 7 5 5 5 5 5 5 6 8 10 9 8 6 6 7 17 17 11 7 8 9 8 8 7 10 13 17 17 18 14 11 13 10 9 13 13 13 12 13 15 16 16
8 6 6 5 6 5 5 7 8 8 9 9 8 6 6 5 16 17 14 7 8 9 9 9 9 9 10 11 14 18 16 18 16 13 13 13 16 14 15 16 15 16 17
8 6 5 6 6 6 6 7 7 7 7 7 8 7 6 7 15 16 14 9 8 10 8 9 9 11 12 14 12 12 12 12 12 12 13 14 14 15 14 14 16 16 16
7 7 5 6 7 6 6 6 5 6 6 7 7 7 7 7 16 18 13 7 8 9 8 10 10 11 21 21 11 11 10 10 15 19 21 21 21 21 20 10 10 13 15
8 7 6 5 7 7 6 5 4 5 6 6 7 8 8 7 15 16 12 6 8 8 9 11 15 16 20 20 11 11 11 13 14 14 12 15 16 15 21 12 11 12 13
7 6 5 6 6 6 5 5 4 4 6 4 7 7 7 8 8 14 17 8 7 6 6 7 8 18 17 19 17 11 13 14 14 11 10 10 11 12 11 12 12 12 13
6 5 5 5 5 4 4 5 5 6 5 6 6 5 4 6 10 13 16 15 13 5 7 6 6 16 17 19 13 21 21 15 8 8 9 10 12 13 13 14 16 14 12
8 6 5 6 6 5 4 4 5 5 4 4 4 4 4 4 4 12 14 15 13 6 6 9 13 15 16 13 19 20 13 8 9 8 9 10 11 12 15 15 15 17 16
7 7 5 5 5 5 4 4 4 4 3 3 4 3 1 3 4 3 3 3 7 6 9 7 10 11 12 11 8 10 8 8 8 8 9 10 10 11 11 12 14 14 14
7 6 5 4 4 5 4 3 3 2 4 3 2 3 2 3 4 7 7 3 2 8 4 3 3 5 7 7 7 7 7 8 8 9 8 10 11 11 11 12 11 13 12
7 5 4 4 3 3 3 2 6 6 6 6 5 4 2 5 8 8 10 10 10 10 4 3 3 4 5 6 6 7 6 8 8 8 9 9 10 11 12 12 11 12 13
6 6 4 4 3 3 2 3 2 5 4 2 4 3 5 5 7 7 8 7 9 7 2 2 2 2 3 3 4 5 6 7 7 7 8 9 9 10 13 12 12 12 13
5 5 4 3 3 3 3 3 3 2 0 3 5 3 4 7 6 6 7 5 4 5 1 1 2 3 3 3 4 3 6 7 6 7 8 8 9 9 10 11 12 13 13
5 4 4 3 3 4 3 3 2 2 2 2 3 4 5 7 5 5 5 3 2 2 2 2 2 3 3 3 3 3 3 4 6 5 6 7 8 8 9 10 11 16 15
3 6 4 4 3 2 2 3 2 2 1 2 2 4 3 2 2 2 1 1 1 3 3 3 3 3 3 3 3 3 3 3 4 4 5 7 7 7 8 10 10 11 12
4 3 5 3 3 3 3 4 3 3 3 3 4 4 10 4 3 3 3 3 3 3 4 3 3 4 3 3 3 3 3 5 4 4 4 6 7 8 8 8 9 9 10
4 4 3 4 3 3 3 3 3 3 3 3 4 4 9 1 2 3 4 4 4 4 4 3 4 4 3 3 3 2 3 5 5 4 4 5 6 7 7 8 8 9 9
4 4 3 3 3 3 2 3 3 3 4 4 4 4 3 4 3 4 4 4 4 4 3 3 4 4 4 4 3 4 4 6 6 4 6 6 6 7 6 7 8 8 9
4 5 5 4 3 3 4 4 4 5 5 5 5 4 4 4 5 5 5 4 4 4 3 3 4 6 5 5 4 4 5 6 5 7 7 7 7 8 7 6 7 8 8
5 5 5 5 5 5 4 5 5 5 5 5 5 4 4 4 4 5 4 4 4 3 5 4 4 6 8 9 8 9 9 10 7 10 6 7 9 10 8 6 6 7 6
5 5 5 4 4 5 5 5 5 5 6 6 6 5 5 5 5 5 4 4 4 4 5 4 6 9 10 8 9 10 10 12 12 15 9 6 5 6 5 6 8 5 6
Wind_Direction
97 88 80 70 66 64 61 39 41 43 38 37 26 52 53 46 35 35 36 31 29 33 27 27 19 11 17 5 349 339 337 327 303 307 314 312 321 318 320 319 316 315 311
108 96 82 76 72 66 62 55 44 50 36 32 29 66 54 46 38 33 33 22 26 31 28 24 24 16 12 10 348 358 348 336 322 308 319 323 321 320 316 318 318 317 314
108 97 83 79 80 75 68 61 55 53 45 45 49 59 54 46 38 29 23 24 31 36 31 27 20 24 14 15 355 344 335 331 320 314 317 320 319 324 322 319 321 317 313
117 105 95 86 88 82 78 71 67 66 62 57 49 65 49 46 45 35 28 28 34 33 30 30 33 30 8 2 359 349 344 336 326 318 318 321 323 333 327 327 320 320 316
118 108 105 98 93 91 87 78 71 70 75 55 59 47 31 42 37 40 27 35 31 32 34 29 32 28 8 6 355 351 346 340 332 333 327 324 330 337 336 328 313 315 312
114 117 115 112 102 91 81 82 78 82 80 73 60 46 22 37 36 39 32 36 31 31 32 24 14 15 355 359 358 357 353 343 342 333 328 326 328 326 320 319 316 320 316
117 116 116 118 107 101 97 87 78 73 84 80 77 66 29 11 35 35 27 29 34 27 30 22 12 1 346 353 2 357 351 346 346 341 329 326 323 320 319 322 320 314 303
120 114 112 111 112 110 99 92 92 90 93 86 77 68 48 19 37 29 24 23 35 26 22 22 12 349 347 357 7 351 344 339 346 344 331 323 320 325 327 321 318 305 298
131 132 134 131 125 115 105 94 91 93 96 94 84 73 55 12 34 26 24 14 22 23 8 25 5 349 356 357 8 340 342 341 348 336 331 328 331 336 337 330 331 325 317
141 140 133 122 118 117 111 104 86 103 101 91 92 64 53 28 24 22 32 13 19 12 2 11 5 1 360 4 9 351 350 349 340 339 334 336 338 335 341 343 327 324 319
127 127 114 108 112 113 115 110 91 89 79 92 89 66 40 35 14 21 22 27 25 10 0 2 352 360 6 10 14 4 359 355 340 339 335 334 338 338 337 335 329 323 314
114 113 109 105 113 106 101 89 76 87 83 74 76 68 38 27 9 19 22 24 18 24 8 348 338 6 12 14 14 10 7 359 347 343 342 343 340 337 333 330 327 318 307
127 121 117 118 112 108 106 100 76 73 77 73 80 66 37 5 346 15 17 16 10 40 4 1 8 13 15 15 10 13 6 358 352 353 345 336 332 325 324 328 327 322 315
123 125 135 127 113 91 88 101 93 89 92 81 72 74 355 341 345 328 25 17 15 57 23 3 13 18 20 17 360 6 2 357 351 342 335 326 327 334 333 336 332 334 328
129 133 134 126 106 107 104 111 103 138 129 119 160 148 90 345 296 359 4 16 3 33 22 2 4 8 7 5 1 357 353 353 351 341 337 333 335 335 333 334 334 332 332
135 136 142 135 123 114 117 66 97 93 81 68 81 137 279 322 351 352 5 15 10 25 37 19 349 5 360 352 352 345 347 349 344 337 337 335 334 334 330 334 336 338 332
134 143 131 123 127 138 110 101 91 353 21 74 26 3 353 326 351 351 5 19 20 45 76 355 346 333 304 327 335 342 335 334 322 333 334 331 331 330 331 336 337 337 333
112 118 126 138 133 106 100 109 113 129 162 312 344 328 357 328 349 350 10 34 3 4 73 322 308 310 305 317 323 324 328 328 332 333 329 327 328 329 329 337 337 337 334
133 136 139 117 107 122 122 132 146 142 174 239 339 339 341 324 331 351 40 134 201 293 296 313 265 283 292 289 286 284 278 298 314 313 317 321 323 326 324 331 332 335 335
136 138 121 121 120 125 143 145 150 169 188 223 238 242 287 56 2 288 279 203 221 247 258 263 282 278 281 281 292 294 306 306 305 307 314 316 316 316 317 323 332 333 335
132 119 142 127 158 175 172 181 184 173 208 225 236 237 250 174 220 220 240 256 245 257 265 253 280 279 273 280 283 298 289 286 281 280 292 306 310 312 313 310 321 327 328
147 156 156 177 175 180 196 185 191 203 218 228 250 262 280 158 223 241 244 250 248 237 239 230 263 263 259 258 258 267 271 281 285 272 278 287 299 302 305 309 318 327 329
146 165 173 186 185 184 192 207 206 212 232 239 245 249 240 242 238 238 244 252 249 257 255 232 262 280 259 254 235 232 257 274 270 251 285 290 293 296 298 303 315 321 332
169 180 186 199 183 199 208 226 228 226 228 234 237 245 246 242 240 243 244 247 255 261 250 252 249 260 279 270 249 239 237 251 250 260 243 265 280 289 289 297 303 314 315
185 191 197 200 206 215 216 225 227 234 240 240 246 234 238 244 248 245 242 238 245 256 263 260 257 262 270 275 278 275 268 281 260 260 249 242 254 270 278 285 289 304 306
194 199 206 198 217 215 219 226 231 230 237 244 242 237 236 239 241 245 247 245 248 246 253 253 258 266 275 274 272 274 275 280 271 261 253 236 245 277 274 276 291 291 293